O'Neill, NE

10:51 PM CDT on May 29, 2017 (GMT -0500)
The O'Neill Municipal-Baker

Weather History for KONL - March, 2014

Change the Weather History Date:

Monday, March 31, 2014

  Actual Average Record
Temperature  
Mean Temperature 42 °F -  
Max Temperature 62 °F 54 °F 82 °F (2012)
Min Temperature 22 °F 28 °F 6 °F (1954)
Degree Days  
Heating Degree Days 23    
Moisture  
Dew Point 25 °F    
Average Humidity 65    
Maximum Humidity 87    
Minimum Humidity 34    
Precipitation  
Precipitation 0.00 in - - ()
Sea Level Pressure  
Sea Level Pressure 29.56 in    
Wind  
Wind Speed 20 mph (West)    
Max Wind Speed 39 mph    
Max Gust Speed 48 mph    
Visibility 8 miles    
Events Snow , Thunderstorm    
Averages and records for this station are not official NWS values.
T = Trace of Precipitation, MM = Missing Value Source: NWS Daily Summary

Daily Weather History Graph

Daily Weather History Graph

Search for Another Location

Airport or City:

Trip Planner

Search our weather history database for the weather conditions in past years. The results will help you decide how hot, cold, wet, or windy it might be!

Date:

Astronomy

Mar. 31, 2014 Rise Set
Actual Time 7:18 AM CDT 7:59 PM CDT
Civil Twilight 6:50 AM CDT 8:28 PM CDT
Nautical Twilight 6:16 AM CDT 9:01 PM CDT
Astronomical Twilight 5:42 AM CDT 9:36 PM CDT
Moon 7:42 AM CDT (3/31) 9:22 PM CDT (3/31)
Length of Visible Light 13h 37m
Length of Day
12h 40m
New Moon, 1% of the Moon is Illuminated
Mar 31
New Moon
Apr 7
First Quarter
Apr 15
Full
Apr 22
Last Quarter
Apr 29
New

Hourly Weather History & Observations

Time (CDT) Temp. Windchill Dew Point Humidity Pressure Visibility Wind Dir Wind Speed Gust Speed Precip Events Conditions
12:15 AM 58.5 °F - 34.2 °F 40% 29.46 in 10.0 mi SE 9.2 mph - N/A   Clear
12:35 AM 58.5 °F - 34.9 °F 41% 29.45 in 10.0 mi SE 10.4 mph - N/A   Clear
12:55 AM 59.0 °F - 35.4 °F 41% 29.44 in 10.0 mi SSE 10.4 mph - N/A   Clear
1:15 AM 59.4 °F - 35.6 °F 41% 29.42 in 10.0 mi SSE 11.5 mph - N/A   Clear
1:35 AM 60.8 °F - 35.2 °F 38% 29.41 in 10.0 mi SSE 13.8 mph - N/A   Clear
1:55 AM 61.9 °F - 34.3 °F 36% 29.40 in 10.0 mi SSE 16.1 mph 23.0 mph N/A   Clear
2:15 AM 62.2 °F - 33.8 °F 35% 29.40 in 10.0 mi South 17.3 mph - N/A   Clear
2:35 AM 62.2 °F - 33.3 °F 34% 29.39 in 10.0 mi South 21.9 mph 31.1 mph N/A   Scattered Clouds
2:55 AM 61.9 °F - 33.3 °F 34% 29.39 in 10.0 mi South 16.1 mph 25.3 mph N/A   Scattered Clouds
3:15 AM 61.3 °F - 33.4 °F 35% 29.37 in 10.0 mi South 15.0 mph 21.9 mph N/A   Scattered Clouds
3:35 AM 61.7 °F - 33.1 °F 34% 29.35 in 10.0 mi South 17.3 mph 24.2 mph N/A   Mostly Cloudy
3:55 AM 60.4 °F - 33.3 °F 36% 29.35 in 10.0 mi South 15.0 mph - N/A   Scattered Clouds
4:15 AM 58.6 °F - 33.8 °F 39% 29.34 in 10.0 mi SSE 11.5 mph - N/A   Clear
4:35 AM 56.5 °F - 34.0 °F 43% 29.33 in 10.0 mi SSE 11.5 mph - N/A   Clear
4:55 AM 55.4 °F - 34.0 °F 44% 29.31 in 10.0 mi SSE 10.4 mph - N/A   Clear
5:15 AM 55.4 °F - 33.4 °F 43% 29.29 in 10.0 mi SE 8.1 mph - N/A   Clear
5:35 AM 53.2 °F - 33.6 °F 47% 29.30 in 10.0 mi SE 8.1 mph - N/A   Clear
5:55 AM 52.7 °F - 33.3 °F 48% 29.29 in 10.0 mi SE 10.4 mph - N/A   Clear
6:15 AM 52.9 °F - 32.9 °F 47% 29.28 in 10.0 mi SE 11.5 mph - N/A   Clear
6:35 AM 54.1 °F - 32.4 °F 44% 29.28 in 10.0 mi SSE 11.5 mph - N/A   Clear
6:55 AM 53.2 °F - 32.7 °F 46% 29.27 in 10.0 mi SE 8.1 mph - N/A   Clear
7:15 AM 52.0 °F - 32.9 °F 48% 29.28 in 10.0 mi South 8.1 mph - N/A   Clear
7:35 AM 50.7 °F - 33.3 °F 51% 29.27 in 10.0 mi SSE 5.8 mph - N/A   Clear
7:55 AM 49.3 °F - 33.3 °F 54% 29.27 in 10.0 mi South 3.5 mph - N/A   Clear
8:15 AM 49.1 °F - 34.3 °F 57% 29.29 in 10.0 mi WNW 10.4 mph - N/A   Clear
8:35 AM 39.7 °F 28.8 °F 34.0 °F 80% 29.32 in 7.0 mi NW 26.5 mph 35.7 mph N/A   Scattered Clouds
8:55 AM 37.6 °F 26.3 °F 32.5 °F 82% 29.36 in 5.0 mi WNW 24.2 mph 34.5 mph N/A   Haze
9:15 AM 36.9 °F 25.6 °F 32.2 °F 83% 29.38 in 5.0 mi WNW 23.0 mph 34.5 mph N/A   Haze
9:35 AM 36.1 °F 23.0 °F 32.0 °F 85% 29.40 in 5.0 mi WNW 31.1 mph 36.8 mph N/A   Overcast
9:55 AM 35.1 °F 22.2 °F 31.5 °F 87% 29.40 in 5.0 mi WNW 27.6 mph 39.1 mph N/A   Overcast
10:15 AM 34.0 °F 20.8 °F 30.6 °F 87% 29.43 in 5.0 mi West 27.6 mph 36.8 mph N/A   Overcast
10:35 AM 33.1 °F 18.2 °F 29.7 °F 87% 29.40 in 5.0 mi WNW 34.5 mph 44.9 mph N/A   Overcast
10:55 AM 32.4 °F 17.9 °F 28.8 °F 87% 29.45 in 7.0 mi WNW 31.1 mph 43.7 mph N/A   Overcast
11:15 AM 32.0 °F 16.5 °F 28.6 °F 87% 29.43 in 7.0 mi NW 35.7 mph 42.6 mph N/A Thunderstorm Overcast
11:35 AM 32.0 °F 17.2 °F 28.2 °F 86% 29.46 in 10.0 mi WNW 32.2 mph 40.3 mph N/A   Overcast
11:55 AM 32.0 °F 17.6 °F 27.9 °F 85% 29.47 in 10.0 mi WNW 29.9 mph 42.6 mph N/A   Overcast
12:15 PM 31.5 °F 15.2 °F 27.0 °F 83% 29.47 in 10.0 mi NW 39.1 mph 48.3 mph N/A   Overcast
12:35 PM 31.6 °F 16.9 °F 27.0 °F 83% 29.50 in 10.0 mi WNW 31.1 mph 47.2 mph N/A   Overcast
12:55 PM 31.6 °F 17.9 °F 27.1 °F 83% 29.52 in 7.0 mi WNW 26.5 mph 43.7 mph N/A Snow Light Snow
1:15 PM 30.6 °F 14.2 °F 25.2 °F 80% 29.54 in 7.0 mi WNW 38.0 mph 47.2 mph N/A Thunderstorm Overcast
1:35 PM 28.6 °F 12.0 °F 22.5 °F 78% 29.58 in 7.0 mi WNW 34.5 mph 43.7 mph N/A   Overcast
1:55 PM 25.7 °F 7.9 °F 19.9 °F 79% 29.60 in 10.0 mi WNW 35.7 mph 41.4 mph N/A   Overcast
2:15 PM 24.6 °F 6.8 °F 18.5 °F 78% 29.62 in 7.0 mi WNW 33.4 mph 48.3 mph N/A   Overcast
2:35 PM 23.9 °F 5.9 °F 17.4 °F 76% 29.63 in 7.0 mi WNW 33.4 mph 42.6 mph N/A   Overcast
2:55 PM 22.8 °F 4.4 °F 15.8 °F 74% 29.64 in 10.0 mi WNW 33.4 mph 44.9 mph N/A   Overcast
3:15 PM 22.5 °F 3.9 °F 15.6 °F 75% 29.65 in 7.0 mi WNW 33.4 mph 46.0 mph N/A   Overcast
3:35 PM 22.1 °F 4.2 °F 15.4 °F 76% 29.66 in 4.0 mi WNW 29.9 mph 44.9 mph N/A   Haze
3:55 PM 22.6 °F 3.4 °F 14.0 °F 69% 29.66 in 10.0 mi WNW 36.8 mph 46.0 mph N/A   Overcast
4:15 PM 23.0 °F 4.6 °F 14.9 °F 71% 29.68 in 7.0 mi NW 33.4 mph 42.6 mph N/A   Overcast
4:35 PM 23.5 °F 6.4 °F 14.5 °F 69% 29.69 in 10.0 mi NW 28.8 mph 43.7 mph N/A   Overcast
4:55 PM 23.4 °F 6.8 °F 14.5 °F 69% 29.71 in 7.0 mi WNW 26.5 mph 40.3 mph N/A Snow Light Snow
5:15 PM 22.6 °F 4.1 °F 14.5 °F 71% 29.73 in 3.0 mi NW 33.4 mph 40.3 mph N/A Snow Light Snow
5:35 PM 23.0 °F 6.9 °F 14.4 °F 70% 29.74 in 10.0 mi WNW 24.2 mph 40.3 mph N/A Snow Light Snow
5:55 PM 22.6 °F 4.4 °F 16.2 °F 76% 29.76 in 2.5 mi WNW 32.2 mph 41.4 mph N/A Snow Light Snow
6:15 PM 23.0 °F 3.7 °F 14.0 °F 68% 29.78 in 10.0 mi NW 38.0 mph 46.0 mph N/A Snow Light Snow
6:35 PM 23.0 °F 5.7 °F 16.7 °F 77% 29.79 in 3.0 mi NW 28.8 mph 38.0 mph N/A Snow Light Snow
6:55 PM 23.5 °F 5.4 °F 17.1 °F 76% 29.81 in 2.5 mi NW 33.4 mph 42.6 mph N/A Snow Light Snow
7:15 PM 24.4 °F 6.6 °F 16.5 °F 72% 29.83 in 7.0 mi NW 33.4 mph 40.3 mph N/A Snow Light Snow
7:35 PM 23.7 °F 5.9 °F 15.4 °F 71% 29.84 in 4.0 mi NW 32.2 mph 44.9 mph N/A Snow Light Snow
7:55 PM 23.7 °F 6.1 °F 16.3 °F 73% 29.86 in 4.0 mi NW 31.1 mph 40.3 mph N/A Snow Light Snow
8:15 PM 23.4 °F 5.4 °F 14.7 °F 70% 29.87 in 10.0 mi NW 32.2 mph 42.6 mph N/A   Overcast
8:35 PM 23.7 °F 5.4 °F 16.7 °F 75% 29.88 in 7.0 mi NW 34.5 mph 40.3 mph N/A Snow Light Snow
8:55 PM 23.9 °F 6.1 °F 16.9 °F 75% 29.89 in 7.0 mi NW 32.2 mph 40.3 mph N/A   Overcast
9:15 PM 24.4 °F 6.6 °F 17.1 °F 73% 29.91 in 10.0 mi NW 33.4 mph 46.0 mph N/A   Overcast
9:35 PM 24.8 °F 6.8 °F 16.5 °F 71% 29.92 in 10.0 mi NW 34.5 mph 43.7 mph N/A   Overcast
9:55 PM 25.2 °F 8.6 °F 18.0 °F 74% 29.93 in 10.0 mi NW 28.8 mph 40.3 mph N/A   Overcast
10:15 PM 25.2 °F 8.1 °F 18.0 °F 74% 29.95 in 10.0 mi NW 31.1 mph 43.7 mph N/A   Overcast
10:35 PM 24.6 °F 6.8 °F 17.1 °F 73% 29.95 in 10.0 mi NW 33.4 mph 40.3 mph N/A Snow Light Snow
10:55 PM 24.8 °F 7.6 °F 17.2 °F 73% 29.97 in 10.0 mi WNW 31.1 mph 42.6 mph N/A   Overcast
11:15 PM 23.9 °F 6.4 °F 16.7 °F 74% 29.98 in 10.0 mi WNW 31.1 mph 40.3 mph N/A   Mostly Cloudy
11:35 PM 23.9 °F 6.9 °F 15.8 °F 71% 29.99 in 10.0 mi NW 28.8 mph 40.3 mph N/A   Scattered Clouds
11:55 PM 24.1 °F 7.1 °F 15.8 °F 71% 29.99 in 10.0 mi NW 28.8 mph 38.0 mph N/A   Clear